Terminal Aerodrome Forecast
Issued by NWS Grand Forks, ND

Home | Current Version | Previous Version | Graphics & Text | Print | Product List | Glossary On
Versions: 1 2 3 4 5 6 7 8 9 10 11 12 13 14
000
FTUS43 KFGF 281720
TAFFAR
TAF
KFAR 281720Z 2818/2918 18012KT P6SM FEW020
     FM281900 20012G20KT P6SM BKN150
     FM282300 20013G25KT P6SM VCTS SCT050CB BKN120
     FM290100 19009KT P6SM FEW250=

USA.gov is the U.S. government's official web portal to all federal, state and local government web resources and services.